| time (UTC) | temp F | wind direction | speed MPH | gust MPH | rain 1hr in | rain 24hr in | rain mn in | humidity % | barometer mb |
| 20260507215407 | 56 | 22 | 0.0 | 2.0 | 0.00 | 0.00 | 0.00 | 73 | 1012.3 |
| 20260507214507 | 56 | 22 | 0.0 | 2.0 | 0.00 | 0.00 | 0.00 | 73 | 1012.1 |
| 20260507213608 | 56 | 22 | 0.0 | 2.0 | 0.00 | 0.00 | 0.00 | 73 | 1012.3 |
| 20260507212708 | 56 | 22 | 0.0 | 2.0 | 0.00 | 0.00 | 0.00 | 73 | 1012.2 |
| 20260507211808 | 56 | 22 | 0.0 | 2.0 | 0.00 | 0.00 | 0.00 | 73 | 1012.0 |
| 20260507210907 | 56 | 22 | 0.0 | 2.0 | 0.00 | 0.00 | 0.00 | 73 | 1012.0 |
| 20260507210008 | 56 | 22 | 1.0 | 2.0 | 0.00 | 0.00 | 0.00 | 72 | 1012.2 |
| 20260507205107 | 56 | 0 | 0.0 | 0.0 | 0.00 | 0.00 | 0.00 | 74 | 1012.3 |
| 20260507204207 | 56 | 59 | 0.0 | 2.0 | 0.00 | 0.00 | 0.00 | 73 | 1012.1 |
| 20260507202407 | 56 | 40 | 0.0 | 2.0 | 0.00 | 0.00 | 0.00 | 72 | 1012.2 |
| 20260507201515 | 56 | 50 | 1.0 | 2.0 | 0.00 | 0.00 | 0.00 | 74 | 1012.1 |
| 20260507194807 | 60 | 23 | 0.0 | 2.0 | 0.00 | 0.00 | 0.00 | 63 | 1012.3 |
| 20260507193007 | 60 | 27 | 1.0 | 4.0 | 0.00 | 0.00 | 0.00 | 64 | 1012.1 |
| 20260507192119 | 60 | 28 | 0.0 | 2.0 | 0.00 | 0.00 | 0.00 | 65 | 1012.2 |
| 20260507191208 | 61 | 36 | 1.0 | 2.0 | 0.00 | 0.00 | 0.00 | 66 | 1012.1 |
| 20260507185407 | 61 | 36 | 1.0 | 2.0 | 0.00 | 0.00 | 0.00 | 66 | 1012.0 |
| 20260507183615 | 61 | 27 | 0.0 | 2.0 | 0.00 | 0.00 | 0.00 | 68 | 1011.7 |
| 20260507182707 | 61 | 23 | 1.0 | 2.0 | 0.00 | 0.00 | 0.00 | 70 | 1011.7 |
| 20260507181807 | 62 | 22 | 0.0 | 2.0 | 0.00 | 0.00 | 0.00 | 69 | 1011.8 |
| 20260507180908 | 62 | 22 | 0.0 | 2.0 | 0.00 | 0.00 | 0.00 | 69 | 1011.8 |
| 20260507180008 | 63 | 22 | 0.0 | 4.0 | 0.00 | 0.00 | 0.00 | 67 | 1011.7 |
| 20260507175108 | 65 | 23 | 1.0 | 2.0 | 0.00 | 0.00 | 0.00 | 63 | 1011.7 |
| 20260507173307 | 68 | 36 | 0.0 | 2.0 | 0.00 | 0.00 | 0.00 | 54 | 1011.8 |
| 20260507172408 | 68 | 42 | 1.0 | 2.0 | 0.00 | 0.00 | 0.00 | 53 | 1011.5 |
| 20260507170607 | 69 | 45 | 2.0 | 2.0 | 0.00 | 0.00 | 0.00 | 50 | 1011.2 |
| 20260507165708 | 69 | 41 | 1.0 | 4.0 | 0.00 | 0.00 | 0.00 | 49 | 1011.6 |
| 20260507164810 | 69 | 39 | 0.0 | 4.0 | 0.00 | 0.00 | 0.00 | 49 | 1011.5 |
| 20260507163908 | 69 | 52 | 1.0 | 4.0 | 0.00 | 0.00 | 0.00 | 51 | 1011.7 |
| 20260507163011 | 69 | 38 | 2.0 | 6.0 | 0.00 | 0.00 | 0.00 | 50 | 1011.7 |
| 20260507160308 | 69 | 52 | 2.0 | 4.0 | 0.00 | 0.00 | 0.00 | 49 | 1011.7 |
| 20260507155408 | 70 | 103 | 1.0 | 4.0 | 0.00 | 0.00 | 0.00 | 48 | 1011.7 |
| 20260507154509 | 70 | 178 | 3.0 | 4.0 | 0.00 | 0.00 | 0.00 | 49 | 1011.6 |
| 20260507153610 | 70 | 44 | 2.0 | 4.0 | 0.00 | 0.00 | 0.00 | 48 | 1011.8 |
| 20260507152709 | 70 | 76 | 1.0 | 4.0 | 0.00 | 0.00 | 0.00 | 48 | 1011.4 |
| 20260507151808 | 71 | 36 | 1.0 | 4.0 | 0.00 | 0.00 | 0.00 | 48 | 1011.6 |
| 20260507150910 | 71 | 39 | 2.0 | 4.0 | 0.00 | 0.00 | 0.00 | 48 | 1011.5 |
| 20260507150008 | 71 | 52 | 2.0 | 4.0 | 0.00 | 0.00 | 0.00 | 49 | 1011.9 |
| 20260507144208 | 71 | 49 | 2.0 | 6.0 | 0.00 | 0.00 | 0.00 | 48 | 1011.7 |
| 20260507143309 | 71 | 48 | 2.0 | 8.0 | 0.00 | 0.00 | 0.00 | 48 | 1012.0 |
| 20260507141508 | 71 | 36 | 2.0 | 6.0 | 0.00 | 0.00 | 0.00 | 48 | 1012.1 |
| 20260507135708 | 72 | 138 | 2.0 | 7.0 | 0.00 | 0.00 | 0.00 | 46 | 1012.2 |
| 20260507134808 | 74 | 156 | 2.0 | 9.0 | 0.00 | 0.00 | 0.00 | 45 | 1012.2 |
| 20260507133908 | 73 | 128 | 4.0 | 9.0 | 0.00 | 0.00 | 0.00 | 45 | 1012.0 |
| 20260507133010 | 73 | 34 | 2.0 | 7.0 | 0.00 | 0.00 | 0.00 | 46 | 1012.0 |
| 20260507131213 | 74 | 69 | 2.0 | 4.0 | 0.00 | 0.00 | 0.00 | 48 | 1012.3 |
| 20260507130324 | 74 | 66 | 1.0 | 4.0 | 0.00 | 0.00 | 0.00 | 49 | 1012.0 |
| 20260507125409 | 74 | 58 | 0.0 | 6.0 | 0.00 | 0.00 | 0.00 | 47 | 1012.1 |
| 20260507123623 | 74 | 120 | 2.0 | 4.0 | 0.00 | 0.00 | 0.00 | 51 | 1012.1 |
| 20260507120908 | 73 | 162 | 2.0 | 7.0 | 0.00 | 0.00 | 0.00 | 49 | 1012.4 |
| 20260507115109 | 74 | 134 | 2.0 | 4.0 | 0.00 | 0.00 | 0.00 | 48 | 1012.3 |
| 20260507113310 | 74 | 159 | 2.0 | 6.0 | 0.00 | 0.00 | 0.00 | 50 | 1012.7 |
| 20260507112408 | 73 | 146 | 1.0 | 4.0 | 0.00 | 0.00 | 0.00 | 52 | 1012.5 |
| 20260507111510 | 72 | 152 | 2.0 | 7.0 | 0.00 | 0.01 | 0.00 | 51 | 1012.6 |
| 20260507110608 | 72 | 84 | 2.0 | 7.0 | 0.00 | 0.01 | 0.00 | 54 | 1012.5 |
| 20260507105708 | 73 | 129 | 2.0 | 4.0 | 0.00 | 0.01 | 0.00 | 55 | 1012.6 |
| 20260507104809 | 73 | 140 | 1.0 | 6.0 | 0.00 | 0.01 | 0.00 | 56 | 1012.7 |
| 20260507103908 | 72 | 119 | 3.0 | 4.0 | 0.00 | 0.01 | 0.00 | 54 | 1012.9 |
| 20260507103008 | 72 | 69 | 2.0 | 4.0 | 0.00 | 0.01 | 0.00 | 58 | 1013.2 |
| 20260507102109 | 72 | 138 | 2.0 | 9.0 | 0.00 | 0.01 | 0.00 | 58 | 1013.2 |
| 20260507101209 | 69 | 141 | 4.0 | 9.0 | 0.00 | 0.01 | 0.00 | 59 | 1013.4 |
| 20260507100310 | 70 | 90 | 2.0 | 7.0 | 0.00 | 0.01 | 0.00 | 59 | 1013.3 |
| 20260507095409 | 69 | 142 | 3.0 | 6.0 | 0.00 | 0.01 | 0.00 | 61 | 1013.0 |
| 20260507094508 | 69 | 100 | 1.0 | 4.0 | 0.00 | 0.01 | 0.00 | 59 | 1013.2 |
| 20260507092711 | 69 | 158 | 1.0 | 4.0 | 0.00 | 0.01 | 0.00 | 66 | 1013.2 |
| 20260507091810 | 68 | 165 | 1.0 | 4.0 | 0.00 | 0.01 | 0.00 | 65 | 1013.4 |
| 20260507090910 | 68 | 128 | 1.0 | 2.0 | 0.00 | 0.01 | 0.00 | 64 | 1013.5 |
| 20260507090011 | 67 | 108 | 1.0 | 2.0 | 0.00 | 0.01 | 0.00 | 66 | 1013.5 |
| 20260507085109 | 66 | 172 | 0.0 | 4.0 | 0.00 | 0.01 | 0.00 | 69 | 1013.6 |
| 20260507084209 | 68 | 166 | 1.0 | 2.0 | 0.00 | 0.01 | 0.00 | 68 | 1013.6 |
| 20260507082409 | 62 | 94 | 2.0 | 2.0 | 0.00 | 0.01 | 0.00 | 75 | 1013.5 |
| 20260507075711 | 63 | 167 | 2.0 | 2.0 | 0.00 | 0.01 | 0.00 | 75 | 1013.5 |
| 20260507074810 | 62 | 164 | 1.0 | 2.0 | 0.00 | 0.01 | 0.00 | 79 | 1013.6 |
| 20260507073009 | 60 | 127 | 0.0 | 4.0 | 0.00 | 0.01 | 0.00 | 81 | 1013.4 |
| 20260507072124 | 60 | 52 | 1.0 | 2.0 | 0.00 | 0.01 | 0.00 | 81 | 1013.4 |
| 20260507065410 | 57 | 23 | 0.0 | 2.0 | 0.00 | 0.01 | 0.00 | 84 | 1013.3 |
| 20260507064509 | 57 | 23 | 0.0 | 2.0 | 0.00 | 0.01 | 0.00 | 84 | 1013.4 |
| 20260507063609 | 56 | 0 | 0.0 | 0.0 | 0.00 | 0.01 | 0.00 | 83 | 1013.0 |
| 20260507062709 | 56 | 0 | 0.0 | 0.0 | 0.00 | 0.01 | 0.00 | 83 | 1013.1 |